Weather History for Pittsfield, IL

Change the Weather History Date:

Thursday, March 7, 2013

  Actual Average (KUIN) Record (KUIN)
Temperature  
Mean Temperature 27 °F 38 °F  
Max Temperature 40 °F 47 °F 79 °F (2000)
Min Temperature 14 °F 29 °F -4 °F (1943)
Degree Days  
Heating Degree Days 38 27  
Month to date heating degree days 196  
Since 1 July heating degree days 4538  
Cooling Degree Days 0 0  
Month to date cooling degree days 0  
Year to date cooling degree days 0  
Moisture  
Dew Point 23 °F    
Average Humidity 80    
Maximum Humidity 93    
Minimum Humidity 62    
Precipitation  
Precipitation 0.00 in 0.08 in 1.45 in (1911)
Month to date precipitation 0.55  
Year to date precipitation 3.95  
Sea Level Pressure  
Sea Level Pressure 30.37 in    
Wind  
Wind Speed 3 mph (East)    
Max Wind Speed 10 mph    
Max Gust Speed -    
Visibility 9 miles    
Events      
T = Trace of Precipitation, MM = Missing Value Source: NWS Daily Summary

Daily Weather History Graph

Daily Weather History Graph

Search for Another Location

Airport:

Trip Planner

Search our weather history database for the weather conditions in past years. The results will help you decide how hot, cold, wet, or windy it might be!

Date:

Astronomy

Mar. 07, 2013 Rise Set
Actual Time 6:26 AM CST 6:02 PM CST
Civil Twilight 5:59 AM CST 6:28 PM CST
Nautical Twilight 5:28 AM CST 7:00 PM CST
Astronomical Twilight 4:57 AM CST 7:31 PM CST
Moon 3:25 AM CST (3/7) 1:50 PM CST (3/7)
Length of Visible Light 12h 29m
Length of Day
11h 35m
Waning Crescent, 20% of the Moon is Illuminated
Mar 7
Waning Crescent
Mar 11
New
Mar 19
First Quarter
Mar 27
Full
Apr 2
Last Quarter

Hourly Weather History & Observations

Time (CST) Temp. Windchill Dew Point Humidity Pressure Visibility Wind Dir Wind Speed Gust Speed Precip Events Conditions
12:15 AM 22.5 °F - 19.2 °F 87% 30.36 in 10.0 mi Calm Calm - N/A   Clear
12:35 AM 21.4 °F 16.6 °F 18.3 °F 88% 30.36 in 10.0 mi North 3.5 mph - N/A   Clear
12:55 AM 21.2 °F 14.9 °F 18.0 °F 87% 30.37 in 10.0 mi North 4.6 mph - N/A   Clear
1:15 AM 21.2 °F 14.9 °F 18.1 °F 88% 30.37 in 10.0 mi North 4.6 mph - N/A   Clear
1:35 AM 21.6 °F 16.8 °F 18.3 °F 87% 30.38 in 10.0 mi North 3.5 mph - N/A   Clear
1:55 AM 21.0 °F 16.2 °F 18.0 °F 88% 30.38 in 10.0 mi NNW 3.5 mph - N/A   Clear
2:15 AM 20.1 °F - 17.2 °F 89% 30.37 in 10.0 mi Calm Calm - N/A   Clear
2:35 AM 20.7 °F 15.8 °F 17.8 °F 89% 30.37 in 10.0 mi North 3.5 mph - N/A   Clear
2:55 AM 19.8 °F 14.7 °F 17.2 °F 90% 30.37 in 10.0 mi North 3.5 mph - N/A   Clear
3:15 AM 19.9 °F - 17.4 °F 90% 30.37 in 7.0 mi Calm Calm - N/A   Clear
3:35 AM 19.4 °F 14.3 °F 16.9 °F 90% 30.37 in 7.0 mi North 3.5 mph - N/A   Clear
3:55 AM 19.2 °F 14.1 °F 17.2 °F 92% 30.37 in 7.0 mi North 3.5 mph - N/A   Clear
4:15 AM 18.5 °F - 16.0 °F 90% 30.37 in 7.0 mi Calm Calm - N/A   Clear
4:35 AM 16.9 °F - 14.9 °F 92% 30.38 in 7.0 mi Calm Calm - N/A   Clear
4:55 AM 16.5 °F - 14.0 °F 90% 30.38 in 7.0 mi Calm Calm - N/A   Clear
5:15 AM 14.7 °F - 12.7 °F 92% 30.37 in 5.0 mi Calm Calm - N/A   Clear
5:35 AM 17.2 °F - 14.7 °F 90% 30.38 in 7.0 mi Calm Calm - N/A   Clear
5:55 AM 15.4 °F - 13.8 °F 93% 30.37 in 5.0 mi Calm Calm - N/A   Clear
6:15 AM 16.5 °F - 14.4 °F 91% 30.37 in 7.0 mi Calm Calm - N/A   Clear
6:35 AM 16.5 °F - 13.8 °F 89% 30.38 in 7.0 mi Calm Calm - N/A   Clear
6:55 AM 15.4 °F 9.8 °F 13.1 °F 90% 30.39 in 5.0 mi NW 3.5 mph - N/A   Clear
7:15 AM 17.2 °F - 14.5 °F 89% 30.40 in 5.0 mi Calm Calm - N/A   Clear
7:35 AM 17.2 °F - 14.0 °F 87% 30.40 in 5.0 mi Calm Calm - N/A   Clear
7:55 AM 19.2 °F - 16.0 °F 87% 30.41 in 7.0 mi Calm Calm - N/A   Clear
8:15 AM 22.1 °F - 18.5 °F 86% 30.41 in 7.0 mi Calm Calm - N/A   Clear
8:35 AM 23.9 °F - 19.4 °F 83% 30.43 in 7.0 mi Calm Calm - N/A   Clear
8:55 AM 25.5 °F 21.3 °F 21.4 °F 84% 30.43 in 7.0 mi SE 3.5 mph - N/A   Mostly Cloudy
9:15 AM 26.6 °F 21.2 °F 22.1 °F 83% 30.43 in 7.0 mi SE 4.6 mph - N/A   Overcast
9:35 AM 28.4 °F 20.4 °F 23.0 °F 80% 30.42 in 10.0 mi SE 8.1 mph - N/A   Scattered Clouds
9:55 AM 29.1 °F 24.1 °F 23.0 °F 78% 30.42 in 10.0 mi ESE 4.6 mph - N/A   Clear
10:15 AM 30.0 °F 24.1 °F 23.5 °F 77% 30.41 in 10.0 mi ESE 5.8 mph - N/A   Clear
10:35 AM 30.2 °F 26.7 °F 23.7 °F 77% 30.41 in 10.0 mi SE 3.5 mph - N/A   Clear
10:55 AM 31.5 °F 28.1 °F 23.9 °F 74% 30.41 in 10.0 mi ESE 3.5 mph - N/A   Clear
11:15 AM 32.0 °F - 23.7 °F 71% 30.40 in 10.0 mi Calm Calm - N/A   Clear
11:35 AM 32.9 °F 29.8 °F 24.3 °F 71% 30.40 in 10.0 mi East 3.5 mph - N/A   Clear
11:55 AM 32.9 °F - 24.3 °F 71% 30.39 in 10.0 mi Calm Calm - N/A   Clear
12:15 PM 33.8 °F 30.8 °F 25.0 °F 70% 30.39 in 10.0 mi SSE 3.5 mph - N/A   Clear
12:35 PM 34.2 °F - 25.3 °F 70% 30.38 in 10.0 mi Calm Calm - N/A   Clear
12:55 PM 34.7 °F - 25.2 °F 68% 30.38 in 10.0 mi Calm Calm - N/A   Clear
1:15 PM 35.2 °F - 25.3 °F 67% 30.37 in 10.0 mi Calm Calm - N/A   Clear
1:35 PM 36.3 °F 32.5 °F 26.1 °F 66% 30.35 in 10.0 mi ESE 4.6 mph - N/A   Clear
1:55 PM 36.7 °F 32.0 °F 26.6 °F 67% 30.35 in 10.0 mi SE 5.8 mph - N/A   Clear
2:15 PM 37.2 °F - 26.4 °F 65% 30.35 in 10.0 mi Calm Calm - N/A   Clear
2:35 PM 38.1 °F 34.6 °F 27.0 °F 64% 30.34 in 10.0 mi ESE 4.6 mph - N/A   Clear
2:55 PM 38.5 °F 33.4 °F 27.3 °F 64% 30.34 in 10.0 mi ESE 6.9 mph - N/A   Clear
3:15 PM 38.7 °F 34.3 °F 27.5 °F 64% 30.34 in 10.0 mi ESE 5.8 mph - N/A   Clear
3:35 PM 39.0 °F 35.7 °F 28.4 °F 66% 30.33 in 10.0 mi ESE 4.6 mph - N/A   Clear
3:55 PM 39.7 °F 36.5 °F 28.0 °F 63% 30.33 in 10.0 mi East 4.6 mph - N/A   Clear
4:15 PM 40.3 °F 38.2 °F 28.2 °F 62% 30.32 in 10.0 mi ENE 3.5 mph - N/A   Clear
4:35 PM 40.5 °F 37.3 °F 28.4 °F 62% 30.32 in 10.0 mi East 4.6 mph - N/A   Clear
4:55 PM 39.7 °F 35.6 °F 28.8 °F 65% 30.32 in 10.0 mi East 5.8 mph - N/A   Clear
5:15 PM 40.1 °F 35.3 °F 28.4 °F 63% 30.32 in 10.0 mi East 6.9 mph - N/A   Clear
5:35 PM 39.6 °F 34.7 °F 28.4 °F 64% 30.33 in 10.0 mi East 6.9 mph - N/A   Clear
5:55 PM 39.2 °F 35.9 °F 28.4 °F 65% 30.33 in 10.0 mi ENE 4.6 mph - N/A   Clear
7:35 PM 35.2 °F 29.5 °F 29.1 °F 78% 30.34 in 10.0 mi ENE 6.9 mph - N/A   Clear
7:55 PM 35.6 °F 29.2 °F 30.7 °F 82% 30.33 in 10.0 mi East 8.1 mph - N/A   Clear
8:15 PM 34.9 °F 27.1 °F 30.7 °F 85% 30.34 in 10.0 mi East 10.4 mph - N/A   Clear
8:35 PM 34.7 °F 28.8 °F 30.7 °F 85% 30.35 in 10.0 mi East 6.9 mph - N/A   Clear
8:55 PM 34.0 °F 28.0 °F 30.4 °F 87% 30.35 in 10.0 mi East 6.9 mph - N/A   Clear
9:15 PM 33.4 °F 27.3 °F 30.0 °F 87% 30.35 in 10.0 mi East 6.9 mph - N/A   Clear
9:35 PM 33.3 °F 27.1 °F 29.8 °F 87% 30.34 in 10.0 mi East 6.9 mph - N/A   Clear
9:55 PM 32.9 °F 26.7 °F 29.3 °F 87% 30.34 in 10.0 mi East 6.9 mph - N/A   Clear
10:15 PM 32.9 °F 26.7 °F 29.3 °F 87% 30.34 in 10.0 mi ESE 6.9 mph - N/A   Clear
10:35 PM 32.4 °F 26.0 °F 28.9 °F 87% 30.34 in 10.0 mi ESE 6.9 mph - N/A   Clear
10:55 PM 31.8 °F 25.4 °F 28.2 °F 87% 30.35 in 10.0 mi ESE 6.9 mph - N/A   Clear
11:15 PM 31.8 °F 25.4 °F 28.2 °F 87% 30.35 in 10.0 mi ESE 6.9 mph - N/A   Clear
11:35 PM 31.8 °F 25.4 °F 28.2 °F 87% 30.36 in 10.0 mi ESE 6.9 mph - N/A   Clear
11:55 PM 32.0 °F 25.6 °F 28.2 °F 86% 30.36 in 7.0 mi East 6.9 mph - N/A   Clear